Skip Navigation Linkswww.weather.gov 
NOAA logo - Click to go to the NOAA homepage National Weather Service Forecast Office   NWS logo - Click to go to the NWS homepage    
Los Angeles, California
navigation bar decoration      
spacer
Printer Friendly  |   Go Back  |  Version: Current   1   2   3   4   5   6   7   8   9   10   |  Font:  A A A  |  
This version is NOT current and may no longer be valid!

HOURLY WEATHER ROUNDUP
 
 ASUS46 KSTO 291104
RWRCA

NORTHERN AND CENTRAL CA REGIONAL WEATHER ROUNDUP
NATIONAL WEATHER SERVICE SACRAMENTO CA
400 AM PDT SUN MAR 29 2015

NOTE: FAIR INDICATES FEW OR NO CLOUDS BELOW 12,000 FEET WITH NO
SIGNIFICANT WEATHER AND/OR OBSTRUCTIONS TO VISIBILITY.

CAZ001-003-291200-
NORTHWEST AREA

CITY SKY/WX TMP DP RH WIND PRES REMARKS
CRESCENT CITY CLOUDY 47 46 97 E3 30.27F
UKIAH CLEAR 44 41 89 CALM 30.15F
$$

CAZ006-505>513-291200-
BAY AREA

CITY SKY/WX TMP DP RH WIND PRES REMARKS
SANTA ROSA CLEAR 46 43 89 CALM 30.10S
SAN RAFAEL N/A 51 MM MM MISG
NAPA CLEAR 44 43 96 CALM 30.11R
CONCORD CLEAR 54 45 71 S6 30.09F
OAKLAND CITY N/A 55 MM MM MISG
OAKLAND CLEAR 49 46 90 E3 30.11S
SAN FRAN CITY N/A 53 MM 75 MISG
SAN FRAN ARPT CLEAR 53 51 93 W13 30.11F
LIVERMORE CLEAR 52 44 74 CALM 30.10R
HAYWARD CLEAR 54 46 74 E3 30.10F
REDWOOD CITY N/A MM MM MM MISG
MOFFETT ARPT CLEAR 51 47 86 CALM 30.11F
SAN JOSE ARPT CLEAR 53 47 79 CALM 30.10S
$$
CAZ034-037-514>518-291200-
CENTRAL COAST

CITY SKY/WX TMP DP RH WIND PRES REMARKS
WATSONVILLE CLEAR 50 46 86 NW3 30.12R
SALINAS CLEAR 53 47 79 NW5 30.11S
MONTEREY PTCLDY 51 48 89 SW6 30.12S
SAN LUIS OBISP CLEAR 54 47 77 SW3 30.04F
SANTA MARIA CLEAR 51 47 86 S3 30.04F
$$
CAZ015-016-291200-
NORTHERN SACRAMENTO VALLEY

CITY SKY/WX TMP DP RH WIND PRES REMARKS
REDDING CLEAR 63 30 28 N7 30.09R
RED BLUFF CLEAR 52 37 56 N9 30.09R
OROVILLE CLEAR 51 43 74 S3 30.06S
$$
CAZ016>018-291200-
SOUTHERN SACRAMENTO VALLEY

CITY SKY/WX TMP DP RH WIND PRES REMARKS
AUBURN CLEAR 57 41 54 E5 30.08R
LINCOLN FAIR 41 39 93 NE3 30.05S
MARYSVILLE CLEAR 49 40 71 CALM 30.06R
SAC INTL ARPT CLEAR 47 38 71 SW3 30.05S
MATHER AIRPORT NOT AVBL
DOWNTOWN SAC N/A 54 MM MM MISG
SAC EXEC ARPT CLEAR 50 44 80 W3 30.06S
VACAVILLE CLEAR 47 39 74 CALM 30.07S
$$
CAZ019>021-291200-
SAN JOAQUIN VALLEY

CITY SKY/WX TMP DP RH WIND PRES REMARKS
STOCKTON CLEAR 49 41 74 CALM 30.05F
MODESTO CLEAR 54 45 71 CALM 30.04F
MERCED CLEAR 50 42 74 CALM 30.05F
LEMOORE CLEAR 50 28 42 CALM 30.08S
FRESNO CLEAR 58 45 62 CALM 30.06F
HANFORD CLEAR 55 43 63 CALM 30.07F
PORTERVILLE CLEAR 54 46 76 CALM 30.08S
BAKERSFIELD CLEAR 63 45 51 E5 30.08R
$$
CAZ011-012-071-291200-
NORTHERN MOUNTAINS

CITY SKY/WX TMP DP RH WIND PRES REMARKS
YREKA PTCLDY 37 32 82 CALM 30.29R
MOUNT SHASTA PTCLDY 44 30 57 CALM 30.24F
ALTURAS CLEAR 30 23 75 CALM 30.28R
$$
CAZ011-012-071-291200-
SIERRA NEVADA MTNS

CITY SKY/WX TMP DP RH WIND PRES REMARKS
BLUE CANYON CLEAR 56 10 16 NE8 30.22F
TRUCKEE CLEAR 28 23 80 CALM 30.31S
TAHOE VLY ARPT CLEAR 31 22 69 S3 30.29F
$$



Webmaster
US Dept of Commerce
National Oceanic and Atmospheric Administration
National Weather Service
Los Angeles/Oxnard Weather Forecast Office
520 North Elevar Street
Oxnard, CA 93030

Tel: (805) 988-6610

Disclaimer
Information Quality
Credits
Glossary
Organization
Privacy Policy
Freedom of Information Act
About Us
Career Opportunities